Hourly Weather Abegondo

Today, 22 January, Friday

Time Temperature Precipitation Wind Pressure Humidity
00:00 +8°C° 2.2 mm 4 mps 732 mmHg 96%
01:00 +7°C° 2.2 mm 4 mps 732 mmHg 96%
02:00 +7°C° 2.2 mm 4 mps 733 mmHg 96%
03:00 +8°C° 0.9 mm 3 mps 734 mmHg 96%
04:00 +7°C° 0.9 mm 3 mps 735 mmHg 95%
05:00 +7°C° 0.9 mm 3 mps 736 mmHg 94%
06:00 +7°C° 0.2 mm 3 mps 737 mmHg 94%
07:00 +7°C° 0.2 mm 3 mps 737 mmHg 94%
08:00 +5°C° 0.2 mm 3 mps 738 mmHg 94%
09:00 +7°C° 0.2 mm 3 mps 739 mmHg 91%
10:00 +7°C° 0.2 mm 4 mps 740 mmHg 88%
11:00 +8°C° 0.2 mm 4 mps 741 mmHg 86%
12:00 +8°C° 0.2 mm 4 mps 741 mmHg 85%
13:00 +8°C° 0.2 mm 4 mps 740 mmHg 85%
14:00 +8°C° 0.2 mm 5 mps 740 mmHg 85%
15:00 +8°C° 0.4 mm 5 mps 740 mmHg 87%
16:00 +7°C° 0.4 mm 5 mps 740 mmHg 90%
17:00 +6°C° 0.4 mm 5 mps 741 mmHg 92%
18:00 +6°C° 0.4 mm 5 mps 741 mmHg 92%
19:00 +6°C° 0.4 mm 5 mps 741 mmHg 93%
20:00 +6°C° 0.4 mm 5 mps 741 mmHg 93%
21:00 +6°C° 0.3 mm 5 mps 741 mmHg 92%
22:00 +5°C° 0.3 mm 6 mps 741 mmHg 92%
23:00 +7°C° 0.3 mm 6 mps 741 mmHg 92%

Tomorrow, 23 January, Saturday

Time Temperature Precipitation Wind Pressure Humidity
00:00 +7°C° 0.6 mm 6 mps 741 mmHg 93%
01:00 +7°C° 0.6 mm 6 mps 741 mmHg 93%
02:00 +7°C° 0.6 mm 6 mps 741 mmHg 94%
03:00 +7°C° 0.8 mm 5 mps 741 mmHg 94%
04:00 +6°C° 0.8 mm 4 mps 741 mmHg 93%
05:00 +7°C° 0.8 mm 3 mps 741 mmHg 93%
06:00 +7°C° 1.4 mm 3 mps 741 mmHg 95%
07:00 +7°C° 1.4 mm 2 mps 740 mmHg 97%
08:00 +8°C° 1.4 mm 1 mps 740 mmHg 98%
09:00 +7°C° 2.1 mm 2 mps 739 mmHg 98%
10:00 +8°C° 2.1 mm 2 mps 738 mmHg 97%
11:00 +8°C° 2.1 mm 2 mps 738 mmHg 97%
12:00 +9°C° 1.1 mm 3 mps 737 mmHg 97%
13:00 +10°C° 1.1 mm 3 mps 735 mmHg 97%
14:00 +11°C° 1.1 mm 3 mps 734 mmHg 96%
15:00 +11°C° 0.4 mm 4 mps 734 mmHg 96%
16:00 +9°C° 0.4 mm 5 mps 735 mmHg 95%
17:00 +9°C° 0.4 mm 6 mps 735 mmHg 94%
18:00 +9°C° 0.5 mm 5 mps 735 mmHg 95%
19:00 +8°C° 0.5 mm 5 mps 736 mmHg 96%
20:00 +8°C° 0.5 mm 4 mps 737 mmHg 96%
21:00 +8°C° 0.5 mm 4 mps 738 mmHg 96%
22:00 +7°C° 0.5 mm 4 mps 739 mmHg 96%
23:00 +8°C° 0.5 mm 3 mps 739 mmHg 95%

Day after tomorrow, 24 January, Sunday

Time Temperature Precipitation Wind Pressure Humidity
00:00 +7°C° 0.1 mm 3 mps 740 mmHg 95%
01:00 +7°C° 0.1 mm 3 mps 740 mmHg 96%
02:00 +7°C° 0.1 mm 2 mps 741 mmHg 96%
03:00 +7°C° 0.2 mm 2 mps 741 mmHg 96%
04:00 +6°C° 0.2 mm 2 mps 742 mmHg 96%
05:00 +6°C° 0.2 mm 2 mps 742 mmHg 96%
06:00 +6°C° 0.1 mm 2 mps 743 mmHg 96%
07:00 +6°C° 0.1 mm 2 mps 743 mmHg 96%
08:00 +6°C° 0.1 mm 2 mps 743 mmHg 96%
09:00 +7°C° 0.1 mm 2 mps 744 mmHg 94%
10:00 +8°C° 0.1 mm 2 mps 744 mmHg 91%
11:00 +9°C° 0.1 mm 3 mps 744 mmHg 89%
12:00 +10°C° 0.3 mm 3 mps 744 mmHg 90%
13:00 +10°C° 0.3 mm 3 mps 744 mmHg 90%
14:00 +10°C° 0.3 mm 2 mps 744 mmHg 91%
15:00 +9°C° 0.2 mm 2 mps 744 mmHg 93%
16:00 +9°C° 0.2 mm 1 mps 744 mmHg 95%
17:00 +8°C° 0.2 mm 1 mps 744 mmHg 96%
18:00 +8°C° 0 mm 1 mps 744 mmHg 96%
19:00 +7°C° 0 mm 0 mps 745 mmHg 96%
20:00 +7°C° 0 mm 0 mps 745 mmHg 96%
21:00 +7°C° 0 mm 0 mps 745 mmHg 96%
22:00 +6°C° 0 mm 0 mps 745 mmHg 97%
23:00 +7°C° 0 mm 1 mps 746 mmHg 97%

25 January, Monday

Time Temperature Precipitation Wind Pressure Humidity
00:00 +6°C° 0 mm 1 mps 745 mmHg 97%
01:00 +6°C° 0 mm 1 mps 745 mmHg 97%
02:00 +6°C° 0 mm 1 mps 745 mmHg 98%
03:00 +6°C° 0 mm 1 mps 745 mmHg 98%
04:00 +6°C° 0 mm 1 mps 745 mmHg 98%
05:00 +6°C° 0 mm 1 mps 745 mmHg 98%
06:00 +6°C° 0 mm 1 mps 745 mmHg 98%
07:00 +7°C° 0 mm 1 mps 746 mmHg 97%
08:00 +7°C° 0 mm 1 mps 746 mmHg 97%
09:00 +8°C° 0 mm 1 mps 746 mmHg 95%
10:00 +10°C° 0 mm 1 mps 746 mmHg 92%
11:00 +11°C° 0 mm 1 mps 746 mmHg 90%
12:00 +11°C° 0 mm 1 mps 746 mmHg 88%
13:00 +11°C° 0 mm 1 mps 746 mmHg 87%
14:00 +12°C° 0 mm 1 mps 745 mmHg 86%
15:00 +11°C° 0 mm 1 mps 745 mmHg 88%
16:00 +10°C° 0 mm 1 mps 746 mmHg 90%
17:00 +10°C° 0 mm 1 mps 746 mmHg 92%
18:00 +10°C° 0 mm 1 mps 746 mmHg 92%
19:00 +9°C° 0 mm 2 mps 746 mmHg 92%
20:00 +9°C° 0 mm 2 mps 746 mmHg 92%
21:00 +9°C° 0 mm 2 mps 746 mmHg 93%
22:00 +10°C° 0 mm 2 mps 746 mmHg 93%
23:00 +10°C° 0 mm 2 mps 746 mmHg 93%

26 January, Tuesday

Time Temperature Precipitation Wind Pressure Humidity
00:00 +11°C° 0.2 mm 3 mps 746 mmHg 94%
01:00 +11°C° 0.2 mm 3 mps 746 mmHg 95%
02:00 +11°C° 0.2 mm 3 mps 746 mmHg 96%
03:00 +12°C° 0.3 mm 3 mps 746 mmHg 96%
04:00 +12°C° 0.3 mm 4 mps 746 mmHg 96%
05:00 +12°C° 0.3 mm 4 mps 745 mmHg 96%
06:00 +12°C° 1.6 mm 4 mps 746 mmHg 97%
07:00 +13°C° 1.6 mm 3 mps 746 mmHg 97%
08:00 +13°C° 1.6 mm 3 mps 747 mmHg 98%
09:00 +13°C° 0.7 mm 3 mps 747 mmHg 98%
10:00 +14°C° 0.7 mm 2 mps 748 mmHg 98%
11:00 +14°C° 0.7 mm 2 mps 748 mmHg 99%
12:00 +14°C° 0 mm 2 mps 749 mmHg 99%
13:00 +15°C° 0 mm 2 mps 749 mmHg 98%
14:00 +15°C° 0 mm 2 mps 749 mmHg 98%
15:00 +14°C° 0 mm 1 mps 749 mmHg 98%
16:00 +14°C° 0 mm 1 mps 750 mmHg 99%
17:00 +14°C° 0 mm 1 mps 750 mmHg 99%
18:00 +14°C° 0 mm 1 mps 751 mmHg 99%
19:00 +13°C° 0 mm 1 mps 751 mmHg 99%
20:00 +13°C° 0 mm 1 mps 751 mmHg 99%
21:00 +13°C° 0 mm 1 mps 751 mmHg 98%
22:00 +13°C° 0 mm 1 mps 752 mmHg 98%
23:00 +13°C° 0 mm 1 mps 752 mmHg 98%

27 January, Wednesday

Time Temperature Precipitation Wind Pressure Humidity
00:00 +13°C° 0 mm 2 mps 751 mmHg 98%
01:00 +13°C° 0 mm 2 mps 751 mmHg 98%
02:00 +13°C° 0 mm 2 mps 751 mmHg 98%
03:00 +13°C° 0 mm 2 mps 751 mmHg 98%
04:00 +13°C° 0 mm 2 mps 750 mmHg 98%
05:00 +13°C° 0 mm 2 mps 750 mmHg 97%
06:00 +14°C° 0 mm 2 mps 750 mmHg 97%
07:00 +14°C° 0 mm 2 mps 750 mmHg 97%
08:00 +14°C° 0 mm 2 mps 751 mmHg 97%
09:00 +14°C° 0 mm 3 mps 750 mmHg 95%
10:00 +14°C° 0 mm 3 mps 750 mmHg 94%
11:00 +16°C° 0 mm 3 mps 750 mmHg 92%
12:00 +15°C° 0 mm 4 mps 750 mmHg 90%
13:00 +17°C° 0 mm 4 mps 749 mmHg 88%
14:00 +17°C° 0 mm 4 mps 749 mmHg 86%
15:00 +15°C° 0.1 mm 4 mps 749 mmHg 88%
16:00 +15°C° 0.1 mm 4 mps 749 mmHg 90%
17:00 +14°C° 0.1 mm 4 mps 749 mmHg 92%
18:00 +14°C° 0.1 mm 4 mps 750 mmHg 93%
19:00 +14°C° 0.1 mm 3 mps 750 mmHg 93%
20:00 +14°C° 0.1 mm 3 mps 750 mmHg 94%
21:00 +14°C° 0.2 mm 3 mps 750 mmHg 94%
22:00 +14°C° 0.2 mm 3 mps 750 mmHg 95%
23:00 +14°C° 0.2 mm 3 mps 750 mmHg 96%
Show more